TimeCST,TemperatureF,Dew PointF,Humidity,Sea Level PressureIn,VisibilityMPH,Wind Direction,Wind SpeedMPH,Gust SpeedMPH,PrecipitationIn,Events,Conditions,WindDirDegrees,DateUTC
12:16 AM,15.8,10.4,79,30.36,10.0,Calm,Calm,-,N/A,Snow,Light Snow,0,2012-12-05 06:16:00
12:37 AM,15.8,10.4,79,30.36,10.0,Calm,Calm,-,N/A,Snow,Light Snow,0,2012-12-05 06:37:00
12:57 AM,15.8,10.4,79,30.36,10.0,Calm,Calm,-,N/A,Snow,Light Snow,0,2012-12-05 06:57:00
1:16 AM,15.8,10.4,79,30.35,10.0,Calm,Calm,-,N/A,,Overcast,0,2012-12-05 07:16:00
1:57 AM,14.0,10.4,86,30.35,10.0,Calm,Calm,-,N/A,,Overcast,0,2012-12-05 07:57:00
2:16 AM,12.2,10.4,92,30.36,7.0,Calm,Calm,-,N/A,Snow,Light Snow,0,2012-12-05 08:16:00
2:37 AM,10.4,8.6,92,30.35,10.0,Calm,Calm,-,N/A,,Scattered Clouds,0,2012-12-05 08:37:00
2:56 AM,10.4,8.6,92,30.34,10.0,Calm,Calm,-,N/A,,Clear,0,2012-12-05 08:56:00
3:16 AM,8.6,6.8,92,30.34,10.0,Calm,Calm,-,N/A,,Clear,0,2012-12-05 09:16:00
3:37 AM,8.6,6.8,92,30.35,10.0,Calm,Calm,-,N/A,,Clear,0,2012-12-05 09:37:00
3:57 AM,8.6,6.8,92,30.35,10.0,Calm,Calm,-,N/A,,Clear,0,2012-12-05 09:57:00
4:16 AM,6.8,5.0,92,30.34,10.0,Calm,Calm,-,N/A,,Clear,0,2012-12-05 10:16:00
4:37 AM,6.8,5.0,92,30.34,10.0,Calm,Calm,-,N/A,,Clear,0,2012-12-05 10:37:00
4:57 AM,6.8,5.0,92,30.33,10.0,Calm,Calm,-,N/A,,Clear,0,2012-12-05 10:57:00
5:16 AM,6.8,5.0,92,30.33,10.0,Calm,Calm,-,N/A,,Clear,0,2012-12-05 11:16:00
5:37 AM,6.8,3.2,85,30.33,10.0,Calm,Calm,-,N/A,,Clear,0,2012-12-05 11:37:00
5:57 AM,6.8,3.2,85,30.33,10.0,Calm,Calm,-,N/A,,Clear,0,2012-12-05 11:57:00
6:16 AM,6.8,3.2,85,30.32,10.0,East,3.5,-,N/A,,Clear,80,2012-12-05 12:16:00
6:37 AM,6.8,5.0,92,30.31,10.0,Calm,Calm,-,N/A,,Clear,0,2012-12-05 12:37:00
6:56 AM,6.8,3.2,85,30.31,10.0,Calm,Calm,-,N/A,,Clear,0,2012-12-05 12:56:00
8:37 AM,12.2,10.4,92,30.31,10.0,SSE,5.8,-,N/A,,Clear,150,2012-12-05 14:37:00
8:56 AM,14.0,10.4,86,30.31,10.0,SSE,4.6,-,N/A,,Clear,160,2012-12-05 14:56:00
9:17 AM,15.8,12.2,86,30.30,10.0,SSE,4.6,-,N/A,,Scattered Clouds,150,2012-12-05 15:17:00
9:37 AM,17.6,14.0,86,30.28,4.0,SSE,6.9,-,N/A,,Overcast,150,2012-12-05 15:37:00
9:56 AM,19.4,15.8,86,30.28,3.0,SSE,8.1,-,N/A,,Overcast,150,2012-12-05 15:56:00
10:17 AM,19.4,15.8,86,30.26,10.0,SSE,8.1,18.4,N/A,,Scattered Clouds,150,2012-12-05 16:17:00
10:36 AM,21.2,15.8,80,30.24,10.0,SSE,12.7,21.9,N/A,,Clear,150,2012-12-05 16:36:00
10:57 AM,21.2,14.0,74,30.22,10.0,SE,13.8,23.0,N/A,,Clear,140,2012-12-05 16:57:00
11:17 AM,23.0,15.8,74,30.21,10.0,SSE,13.8,17.3,N/A,,Clear,150,2012-12-05 17:17:00
11:36 AM,23.0,14.0,68,30.20,10.0,SSE,10.4,18.4,N/A,,Clear,160,2012-12-05 17:36:00
11:57 AM,23.0,14.0,68,30.18,10.0,SE,10.4,-,N/A,,Clear,140,2012-12-05 17:57:00
12:17 PM,24.8,15.8,69,30.18,10.0,South,9.2,-,N/A,,Clear,170,2012-12-05 18:17:00
12:36 PM,24.8,15.8,69,30.16,10.0,SSE,11.5,18.4,N/A,,Clear,150,2012-12-05 18:36:00
12:57 PM,24.8,14.0,64,30.14,10.0,SSE,13.8,21.9,N/A,,Clear,150,2012-12-05 18:57:00
1:17 PM,24.8,14.0,64,30.13,10.0,SE,12.7,16.1,N/A,,Clear,140,2012-12-05 19:17:00
1:36 PM,24.8,15.8,69,30.11,10.0,SE,9.2,-,N/A,,Clear,130,2012-12-05 19:36:00
1:57 PM,24.8,14.0,64,30.10,10.0,SE,12.7,21.9,N/A,,Clear,130,2012-12-05 19:57:00
2:17 PM,24.8,14.0,64,30.08,10.0,ESE,11.5,18.4,N/A,,Clear,120,2012-12-05 20:17:00
2:36 PM,24.8,14.0,64,30.06,10.0,SE,6.9,18.4,N/A,,Clear,130,2012-12-05 20:36:00
2:57 PM,24.8,14.0,64,30.04,10.0,ESE,12.7,19.6,N/A,,Clear,120,2012-12-05 20:57:00
3:17 PM,24.8,14.0,64,30.02,10.0,ESE,8.1,16.1,N/A,,Clear,120,2012-12-05 21:17:00
3:37 PM,24.8,14.0,64,30.01,10.0,SE,11.5,20.7,N/A,,Scattered Clouds,130,2012-12-05 21:37:00
3:57 PM,26.6,15.8,64,30.00,10.0,SE,11.5,16.1,N/A,,Mostly Cloudy,130,2012-12-05 21:57:00
4:17 PM,26.6,15.8,64,29.98,10.0,SE,9.2,16.1,N/A,,Mostly Cloudy,130,2012-12-05 22:17:00
4:37 PM,26.6,15.8,64,29.96,10.0,SE,13.8,21.9,N/A,,Mostly Cloudy,130,2012-12-05 22:37:00
4:56 PM,26.6,15.8,64,29.94,10.0,SE,13.8,20.7,N/A,,Scattered Clouds,130,2012-12-05 22:56:00
5:17 PM,26.6,15.8,64,29.91,10.0,SE,11.5,23.0,N/A,,Clear,140,2012-12-05 23:17:00
5:36 PM,26.6,15.8,64,29.89,10.0,ESE,10.4,20.7,N/A,,Clear,120,2012-12-05 23:36:00
5:57 PM,26.6,15.8,64,29.88,10.0,SE,9.2,19.6,N/A,,Clear,130,2012-12-05 23:57:00
6:17 PM,26.6,17.6,69,29.87,10.0,SE,8.1,18.4,N/A,,Clear,140,2012-12-06 00:17:00
6:36 PM,28.4,17.6,64,29.88,10.0,SSE,6.9,-,N/A,,Clear,150,2012-12-06 00:36:00
6:57 PM,28.4,17.6,64,29.88,10.0,SSE,3.5,-,N/A,,Clear,150,2012-12-06 00:57:00
7:17 PM,28.4,17.6,64,29.87,10.0,South,4.6,-,N/A,,Clear,170,2012-12-06 01:17:00
7:36 PM,28.4,17.6,64,29.86,10.0,SSE,9.2,18.4,N/A,,Clear,160,2012-12-06 01:36:00
7:57 PM,30.2,17.6,60,29.85,10.0,SSE,12.7,20.7,N/A,,Clear,150,2012-12-06 01:57:00
8:17 PM,30.2,17.6,60,29.84,10.0,SSE,10.4,19.6,N/A,,Clear,150,2012-12-06 02:17:00
8:36 PM,30.2,17.6,60,29.84,10.0,South,8.1,18.4,N/A,,Clear,170,2012-12-06 02:36:00
8:57 PM,30.2,17.6,60,29.82,10.0,SSE,12.7,26.5,N/A,,Clear,150,2012-12-06 02:57:00
9:17 PM,28.4,17.6,64,29.81,10.0,SSE,9.2,19.6,N/A,,Clear,160,2012-12-06 03:17:00
9:36 PM,28.4,17.6,64,29.80,10.0,SSE,15.0,21.9,N/A,,Clear,160,2012-12-06 03:36:00
9:57 PM,28.4,17.6,64,29.79,10.0,SSE,11.5,20.7,N/A,,Clear,160,2012-12-06 03:57:00
10:17 PM,30.2,17.6,60,29.78,10.0,SSE,13.8,18.4,N/A,,Clear,160,2012-12-06 04:17:00
10:37 PM,30.2,17.6,60,29.77,10.0,South,10.4,20.7,N/A,,Clear,170,2012-12-06 04:37:00
10:57 PM,30.2,17.6,60,29.76,10.0,SSE,12.7,20.7,N/A,,Clear,150,2012-12-06 04:57:00
11:16 PM,30.2,17.6,60,29.76,10.0,South,8.1,21.9,N/A,,Clear,170,2012-12-06 05:16:00
11:37 PM,30.2,17.6,60,29.75,10.0,South,8.1,18.4,N/A,,Scattered Clouds,170,2012-12-06 05:37:00
11:57 PM,32.0,19.4,60,29.75,10.0,South,8.1,18.4,N/A,,Scattered Clouds,180,2012-12-06 05:57:00